[[{"header":{"parameterUnit":"m.s-1","parameterCategory":1,"la1":30.2991,"la2":30.254,"lo1":-89.0895,"lo2":-89.0444,"dy":0.0017,"dx":0.0017,"nx":28,"ny":28,"refTime":"2025-03-21T21:00:00:Z","depth":0,"parameterNumber":2,"parameterNumberName":"U-component_of_WINDS"},"data":[0,0,0,0,0,0,0,0,0,0,0,0,0,0,0,0,0,0,0,0,0,0,0,0,0,0,0,0,0,0,0,0,0,0,0,0,0,0,0,0,0,0,0,0,0,0,0,0,0,0,0,0,0,0,0,0,0,0,2.2523,2.2523,0,2.2549,2.2549,2.2549,2.2476,2.2474,2.2472,2.2469,2.25,2.2502,2.2505,0,0,0,0,0,0,0,0,0,0,0,0,0,2.2411,2.2414,2.2523,2.2523,2.2524,2.2549,2.2549,2.2549,2.2476,2.2474,2.2471,2.2468,2.2499,2.2502,2.2506,0,0,0,0,0,0,0,0,0,0,0,0,0,2.2451,2.2415,2.2523,2.249,2.2487,2.2548,2.2549,2.2549,2.2477,2.2474,2.247,2.2467,2.2498,2.2502,2.2506,2.2601,0,0,2.252,2.2521,0,0,0,0,0,0,0,0,2.2449,2.2455,2.2495,2.2492,2.249,2.2505,2.252,2.2567,2.2478,2.2481,2.2469,2.2465,2.2505,2.2508,2.2521,2.2603,2.2604,2.252,2.2523,2.2524,2.2526,0,0,0,0,0,0,0,2.2446,2.2454,2.2533,2.2495,2.2492,2.2474,2.2476,2.2529,2.2512,2.2481,2.2475,2.2479,2.2503,2.2517,2.2521,2.2604,2.252,2.2524,2.2526,2.2528,2.276,2.2764,0,0,0,0,0,0,2.2447,2.2452,2.2532,2.2534,2.246,2.2479,2.2481,2.2504,2.2511,2.2509,2.2482,2.2476,2.2511,2.2516,2.2522,2.2629,2.2524,2.2529,2.2531,2.2757,2.2761,2.2765,0,0,0,0,0,0,2.2445,2.2455,2.2531,2.2491,2.25,2.2485,2.2511,2.2506,2.252,2.2512,2.2509,2.2499,2.2508,2.2515,2.258,2.263,2.253,2.2534,2.2753,2.2758,2.2763,2.2849,0,0,0,0,0,0,2.2442,2.2455,2.2491,2.2493,2.2502,2.259,2.2514,2.2509,2.2527,2.2519,2.2527,2.2526,2.2506,2.2574,2.2585,2.2634,2.2538,2.2748,2.2755,2.2761,2.2841,2.2856,2.2869,0,0,0,0,0,2.2439,2.2516,2.2493,2.2503,2.2547,2.2593,2.2598,2.2573,2.2532,2.2567,2.2561,2.2525,2.2623,2.2582,2.2593,2.2644,2.2745,2.2753,2.2761,2.2835,2.2853,2.2869,0,0,0,0,0,0,2.2524,2.2516,2.2491,2.2571,2.2583,2.2581,2.2625,2.2594,2.262,2.2611,2.258,2.2582,2.2652,2.2655,2.2609,2.2734,2.2677,2.2687,2.2729,2.2746,2.276,2.2757,2.2542,0,0,0,0,0,2.2551,2.2589,2.2581,2.2652,2.2659,2.2641,2.2661,2.264,2.2651,2.2657,2.2656,2.2669,2.2702,2.2725,2.2755,2.2841,2.284,2.2882,2.2896,2.2907,2.2916,2.2957,2.2975,2.2791,2.2791,2.2791,0,0,2.261,2.261,2.2637,2.2669,2.2676,2.2714,2.2646,2.2692,2.2719,2.2664,2.2723,2.2723,2.2736,2.2811,2.2844,2.2815,2.2966,2.2917,2.2926,2.2929,2.2967,2.2985,2.3,2.2796,2.2795,2.2795,0,0,2.2735,2.2741,2.2799,2.2806,2.2815,2.2802,2.2816,2.2817,2.2814,2.2873,2.2831,2.2864,2.2923,2.2932,2.2945,2.3068,2.3035,2.308,2.3151,2.3192,2.3206,2.3219,2.326,2.3275,2.3089,2.3089,2.3089,0,2.2807,2.2863,2.2833,2.2879,2.2893,2.2842,2.2899,2.2908,2.2928,2.2939,2.2906,2.2975,2.2981,2.3055,2.3084,2.3098,2.3111,2.3078,2.3207,2.3219,2.323,2.3269,2.3285,2.3094,2.3094,2.3093,2.3093,0,2.2949,2.2988,2.3034,2.305,2.307,2.3123,2.3099,2.3123,2.3099,2.3089,2.3148,2.3152,2.318,2.3196,2.3176,2.3267,2.3248,2.3212,2.3153,2.3253,2.3289,2.3304,2.3102,2.31,2.3098,2.3097,0,0,2.3131,2.3126,2.3144,2.3148,2.3153,2.3183,2.3232,2.3256,2.3276,2.3291,2.3329,2.3378,2.3342,2.3357,2.3336,2.3372,2.3465,2.3331,2.3331,2.3353,2.3561,2.3587,2.3604,2.3443,2.3446,2.3448,2.3559,0,2.3251,2.3332,2.3304,2.3386,2.342,2.3369,2.3411,2.3418,2.341,2.3437,2.3428,2.3461,2.3414,2.3421,2.3455,2.3447,2.3506,2.3439,2.3477,2.3479,2.3473,2.3624,2.3652,2.3756,2.3573,2.3576,2.3577,0,2.3404,2.342,2.3505,2.3499,2.3512,2.355,2.3568,2.3595,2.3602,2.3592,2.3606,2.3576,2.3622,2.3564,2.3626,2.3581,2.3595,2.3593,2.3596,2.3597,2.3533,2.3626,2.3789,2.3804,2.36,2.3598,2.3596,0,2.3523,2.3567,2.3622,2.3628,2.3624,2.3651,2.3651,2.3653,2.3669,2.3685,2.3694,2.3717,2.3729,2.3747,2.3724,2.3684,2.3788,2.3729,2.378,2.378,2.3803,2.3801,2.3968,2.3816,2.3816,2.3816,2.3815,0,2.3659,2.3712,2.3674,2.3708,2.3765,2.3732,2.3789,2.3784,2.3786,2.3817,2.3776,2.3806,2.3775,2.3802,2.3784,2.3836,2.3843,2.3836,2.383,2.3838,2.3838,2.3845,2.3837,2.382,2.3819,2.3818,2.3817,0,2.3802,2.378,2.3835,2.3825,2.3823,2.3866,2.3857,2.3887,2.3874,2.3913,2.3921,2.3901,2.393,2.3908,2.3939,2.3927,2.3994,2.3979,2.3991,2.3986,2.4037,2.4031,2.4212,2.4232,2.407,2.4072,2.4073,0,2.389,2.3928,2.3921,2.3937,2.3938,2.3967,2.398,2.3949,2.3965,2.3972,2.4001,2.4026,2.4044,2.4093,2.4082,2.4104,2.4088,2.4149,2.4091,2.4096,2.4085,2.4082,2.4084,2.4161,2.4163,2.4164,2.4166,0,2.4046,2.4031,2.4052,2.4068,2.4084,2.4096,2.4105,2.4121,2.4089,2.4109,2.4136,2.415,2.4178,2.4203,2.422,2.422,2.4187,2.4184,2.4196,2.4204,2.4207,2.4203,2.402,2.418,2.4178,2.4177,2.4177,2.4176,2.4161,2.4191,2.4189,2.4212,2.4214,2.4222,2.4248,2.4237,2.4259,2.4277,2.4258,2.429,2.4292,2.4311,2.4314,2.4339,2.4314,2.4333,2.4337,2.4342,2.4347,2.4205,2.4343,2.4342,2.4342,2.4342,2.4341,0,2.4312,2.4307,2.4329,2.4339,2.4357,2.4322,2.4329,2.4346,2.4375,2.4378,2.4395,2.4426,2.4448,2.4437,2.4456,2.4478,2.4463,2.4484,2.4481,2.4481,2.4371,2.4356,2.4496,2.4496,2.4496,2.4496,2.4496,2.4496,2.4393,2.444,2.4425,2.4472,2.4467,2.4496,2.4503,2.4509,2.4511,2.4545,2.4563,2.4554,2.4551,2.4569,2.4588,2.4584,2.4592,2.4618,2.4608,2.4505,2.449,2.4475,2.4461,2.462,2.4621,2.4716,2.4717,2.4718]},{"header":{"parameterUnit":"m.s-1","parameterCategory":1,"la1":30.2991,"la2":30.254,"lo1":-89.0895,"lo2":-89.0444,"dy":0.0017,"dx":0.0017,"nx":28,"ny":28,"refTime":"2025-03-21T21:00:00:Z","depth":0,"parameterNumber":3,"parameterNumberName":"V-component_of_WINDS"},"data":[0,0,0,0,0,0,0,0,0,0,0,0,0,0,0,0,0,0,0,0,0,0,0,0,0,0,0,0,0,0,0,0,0,0,0,0,0,0,0,0,0,0,0,0,0,0,0,0,0,0,0,0,0,0,0,0,0,0,5.027,5.027,0,5.0293,5.0293,5.0293,5.0219,5.0217,5.0215,5.0213,5.0234,5.0237,5.0239,0,0,0,0,0,0,0,0,0,0,0,0,0,5.0158,5.016,5.027,5.027,5.027,5.0293,5.0293,5.0293,5.022,5.0217,5.0214,5.0212,5.0233,5.0236,5.024,0,0,0,0,0,0,0,0,0,0,0,0,0,5.0196,5.0161,5.027,5.0236,5.0234,5.0293,5.0293,5.0293,5.022,5.0217,5.0214,5.021,5.0232,5.0236,5.024,5.0332,0,0,5.0252,5.0254,0,0,0,0,0,0,0,0,5.0194,5.02,5.0241,5.0239,5.0236,5.025,5.0261,5.0306,5.0221,5.0225,5.0213,5.0209,5.0242,5.0245,5.0257,5.0333,5.0334,5.0253,5.0255,5.0257,5.0258,0,0,0,0,0,0,0,5.0192,5.0199,5.0279,5.0242,5.0238,5.0219,5.0221,5.027,5.0252,5.0225,5.0219,5.0223,5.024,5.0253,5.0256,5.0334,5.0252,5.0256,5.0258,5.026,5.0482,5.0486,0,0,0,0,0,0,5.0194,5.0197,5.0278,5.0279,5.0206,5.0224,5.0226,5.0249,5.0251,5.0249,5.0226,5.022,5.0248,5.0252,5.0257,5.0361,5.0257,5.026,5.0263,5.0479,5.0483,5.0487,0,0,0,0,0,0,5.0192,5.0202,5.0277,5.0237,5.0245,5.0229,5.0256,5.0251,5.0264,5.0252,5.0249,5.0243,5.0245,5.0251,5.0313,5.0361,5.0262,5.0266,5.0475,5.048,5.0485,5.0572,0,0,0,0,0,0,5.0189,5.0201,5.0237,5.0238,5.0248,5.0334,5.0259,5.0254,5.0271,5.0263,5.0267,5.0265,5.0243,5.0307,5.0317,5.0364,5.0269,5.047,5.0477,5.0483,5.0565,5.058,5.0592,0,0,0,0,0,5.0185,5.0261,5.0239,5.025,5.0292,5.0337,5.0342,5.0316,5.0275,5.031,5.0302,5.0264,5.0355,5.0314,5.0324,5.0374,5.0467,5.0475,5.0483,5.0559,5.0577,5.0592,0,0,0,0,0,0,5.0266,5.0261,5.0237,5.0316,5.0327,5.0324,5.0367,5.0337,5.036,5.0352,5.0318,5.032,5.0386,5.0387,5.0342,5.0461,5.0404,5.0414,5.0458,5.0475,5.0488,5.0485,5.0272,0,0,0,0,0,5.0293,5.0331,5.0324,5.0395,5.0402,5.0384,5.0403,5.0382,5.0392,5.0397,5.0393,5.0404,5.0434,5.0455,5.0483,5.0566,5.0563,5.0604,5.0618,5.063,5.0638,5.0677,5.0694,5.0513,5.0513,5.0513,0,0,5.035,5.0351,5.0377,5.0411,5.0417,5.0455,5.0389,5.0433,5.046,5.0403,5.046,5.0458,5.0468,5.0539,5.0571,5.0542,5.0688,5.064,5.0649,5.0651,5.0687,5.0705,5.072,5.0518,5.0517,5.0516,0,0,5.047,5.0478,5.0535,5.0542,5.0553,5.054,5.0554,5.0556,5.0552,5.0609,5.0566,5.0598,5.0652,5.0659,5.067,5.0792,5.0757,5.0803,5.0873,5.0913,5.0927,5.0939,5.0979,5.0994,5.0812,5.0812,5.0812,0,5.0538,5.0595,5.0568,5.0614,5.0628,5.0579,5.0635,5.0644,5.0663,5.0674,5.0641,5.0706,5.071,5.078,5.0809,5.0822,5.0834,5.08,5.0927,5.0939,5.0951,5.0988,5.1003,5.0817,5.0816,5.0816,5.0815,0,5.0676,5.0716,5.0761,5.0779,5.08,5.0851,5.0829,5.0853,5.083,5.082,5.0877,5.088,5.0905,5.0921,5.09,5.0988,5.0969,5.0933,5.0874,5.0973,5.1008,5.1022,5.0824,5.0823,5.0821,5.082,0,0,5.0848,5.085,5.0866,5.0873,5.088,5.0909,5.0958,5.0983,5.1001,5.1017,5.1053,5.11,5.1065,5.1078,5.1057,5.1092,5.1184,5.1051,5.105,5.1072,5.1276,5.1301,5.1318,5.1162,5.1164,5.1167,5.1274,0,5.0963,5.1045,5.1021,5.1102,5.1136,5.109,5.1131,5.1139,5.1131,5.1158,5.1149,5.1181,5.1135,5.1142,5.1175,5.1166,5.1224,5.1158,5.1193,5.1195,5.1188,5.1337,5.1363,5.1465,5.1288,5.129,5.1292,0,5.1109,5.1128,5.1213,5.1211,5.1225,5.1262,5.1281,5.1309,5.1316,5.1308,5.1321,5.1293,5.1337,5.1281,5.1341,5.1297,5.131,5.1308,5.1311,5.131,5.1247,5.1336,5.1497,5.1511,5.1314,5.1312,5.131,0,5.122,5.1268,5.1323,5.1331,5.1332,5.1358,5.136,5.1364,5.138,5.1397,5.1406,5.1429,5.1441,5.1458,5.1435,5.1397,5.1497,5.144,5.1489,5.1489,5.1509,5.1507,5.167,5.1524,5.1524,5.1524,5.1524,0,5.1349,5.1402,5.1372,5.1406,5.1463,5.1435,5.1491,5.1487,5.1491,5.1522,5.1485,5.1514,5.1485,5.1511,5.1494,5.1544,5.1551,5.1543,5.1537,5.1544,5.1545,5.155,5.1541,5.1528,5.1527,5.1526,5.1526,0,5.1482,5.1465,5.1521,5.1518,5.1518,5.1559,5.1555,5.1585,5.1575,5.1614,5.1622,5.1605,5.1634,5.1614,5.1644,5.1632,5.1696,5.1683,5.1693,5.1688,5.1737,5.1731,5.1905,5.1925,5.1771,5.1772,5.1773,0,5.1563,5.1602,5.1602,5.162,5.1624,5.1654,5.1669,5.1642,5.166,5.167,5.1698,5.1724,5.1743,5.1792,5.1781,5.1803,5.1787,5.1847,5.179,5.1795,5.1783,5.1779,5.1782,5.1857,5.1859,5.186,5.1862,0,5.1709,5.1698,5.1721,5.1742,5.1761,5.1776,5.1787,5.1804,5.1777,5.1798,5.1827,5.1842,5.1871,5.1896,5.1914,5.1914,5.1883,5.188,5.1892,5.1897,5.19,5.1895,5.172,5.1875,5.1874,5.1873,5.1872,5.1872,5.1815,5.1846,5.185,5.1876,5.1882,5.1894,5.192,5.1913,5.1937,5.1958,5.1942,5.1975,5.198,5.2,5.2004,5.2029,5.2005,5.2023,5.2027,5.2031,5.2035,5.19,5.2033,5.2033,5.2032,5.2032,5.2032,0,5.1954,5.1954,5.1979,5.1996,5.2016,5.1986,5.1997,5.2016,5.2046,5.2053,5.2072,5.2104,5.2128,5.212,5.214,5.2162,5.2147,5.2168,5.2164,5.2164,5.2058,5.2044,5.2179,5.2179,5.2179,5.2178,5.2178,5.2178,5.2029,5.2078,5.2068,5.2119,5.2118,5.2151,5.2159,5.2168,5.2173,5.2211,5.223,5.2225,5.2225,5.2245,5.2265,5.2262,5.2269,5.2294,5.2285,5.2186,5.2172,5.2158,5.2144,5.2297,5.2297,5.2388,5.2389,5.2389]}]]